Evanston, WY

11:44 AM MDT on April 30, 2017 (GMT -0600)
Evanston-Uinta County Burns

Weather History for KEVW - May, 2013

Change the Weather History Date:

Friday, May 3, 2013

  Actual Average Record
Temperature  
Mean Temperature 47 °F 45 °F  
Max Temperature 63 °F 56 °F 75 °F (2000)
Min Temperature 30 °F 33 °F 25 °F (2008)
Degree Days  
Heating Degree Days 18 20  
Month to date heating degree days 81 62  
Since 1 July heating degree days 7522 7899  
Cooling Degree Days 0 0  
Month to date cooling degree days 0 0  
Year to date cooling degree days 0 0  
Moisture  
Dew Point 10 °F    
Average Humidity 27    
Maximum Humidity 43    
Minimum Humidity 10    
Precipitation  
Precipitation 0.00 in 0.05 in 0.22 in (2006)
Month to date precipitation T 0.17  
Year to date precipitation 1.80 3.33  
Sea Level Pressure  
Sea Level Pressure 30.09 in    
Wind  
Wind Speed 6 mph (SSW)    
Max Wind Speed 14 mph    
Max Gust Speed 21 mph    
Visibility 10 miles    
Events      
T = Trace of Precipitation, MM = Missing Value Source: NWS Daily Summary

Daily Weather History Graph

Daily Weather History Graph

Search for Another Location

Airport or City:

Trip Planner

Search our weather history database for the weather conditions in past years. The results will help you decide how hot, cold, wet, or windy it might be!

Date:

Astronomy

May. 03, 2013 Rise Set
Actual Time 6:18 AM MDT 8:23 PM MDT
Civil Twilight 5:48 AM MDT 8:54 PM MDT
Nautical Twilight 5:11 AM MDT 9:31 PM MDT
Astronomical Twilight 4:31 AM MDT 10:12 PM MDT
Moon 2:49 AM MDT (5/3) 2:18 PM MDT (5/3)
Length of Visible Light 15h 05m
Length of Day
14h 05m
Last Quarter, 36% of the Moon is Illuminated
May 3
Last Quarter
May 9
New
May 17
First Quarter
May 24
Full
May 31
Last Quarter

Hourly Weather History & Observations

Time (MDT) Temp. Windchill Dew Point Humidity Pressure Visibility Wind Dir Wind Speed Gust Speed Precip Events Conditions
12:53 AM 39.9 °F - 7.0 °F 26% 30.34 in 10.0 mi Calm Calm - N/A   Clear
2:53 AM 32.0 °F 24.8 °F 10.0 °F 40% 30.31 in 10.0 mi SE 8.1 mph - N/A   Clear
3:53 AM 32.0 °F 24.8 °F 12.0 °F 44% 30.27 in 10.0 mi SSE 8.1 mph - N/A   Clear
4:53 AM 32.0 °F 26.4 °F 12.0 °F 44% 30.26 in 10.0 mi SE 5.8 mph - N/A   Clear
5:53 AM 32.0 °F 27.5 °F 10.9 °F 42% 30.23 in 10.0 mi SE 4.6 mph - N/A   Clear
6:53 AM 30.9 °F 25.2 °F 10.9 °F 43% 30.22 in 10.0 mi South 5.8 mph - N/A   Clear
7:53 AM 35.1 °F 31.0 °F 12.9 °F 40% 30.21 in 10.0 mi SSE 4.6 mph - N/A   Clear
8:53 AM 41.0 °F 36.4 °F 16.0 °F 36% 30.17 in 10.0 mi SSW 6.9 mph - N/A   Clear
9:53 AM 48.0 °F - 14.0 °F 26% 30.14 in 10.0 mi SW 10.4 mph 17.3 mph N/A   Clear
10:53 AM 53.1 °F - 12.0 °F 20% 30.11 in 10.0 mi WSW 8.1 mph - N/A   Clear
11:53 AM 55.9 °F - 10.0 °F 16% 30.06 in 10.0 mi WSW 10.4 mph - N/A   Clear
12:53 PM 57.9 °F - 5.0 °F 12% 30.03 in 10.0 mi SSW 6.9 mph - N/A   Clear
1:53 PM 57.9 °F - 5.0 °F 12% 30.03 in 10.0 mi Calm Calm - N/A   Clear
2:53 PM 62.1 °F - 8.1 °F 12% 29.99 in 10.0 mi Calm Calm - N/A   Clear
3:53 PM 61.0 °F - 6.1 °F 11% 29.96 in 10.0 mi SW 9.2 mph 20.7 mph N/A   Clear
4:53 PM 61.0 °F - 6.1 °F 11% 29.95 in 10.0 mi WNW 17.3 mph 23.0 mph N/A   Clear
5:53 PM 57.0 °F - 10.9 °F 16% 29.97 in 10.0 mi West 16.1 mph - N/A   Clear
6:53 PM 55.0 °F - 12.9 °F 19% 29.99 in 10.0 mi WNW 15.0 mph - N/A   Clear
7:53 PM 51.1 °F - 10.0 °F 19% 29.98 in 10.0 mi NW 6.9 mph - N/A   Clear
8:53 PM 48.9 °F - 10.0 °F 21% 29.97 in 10.0 mi North 5.8 mph - N/A   Partly Cloudy
9:53 PM 48.0 °F - 10.9 °F 22% 29.94 in 10.0 mi NNE 5.8 mph - N/A   Clear
10:53 PM 46.0 °F 44.8 °F 10.0 °F 23% 29.92 in 10.0 mi East 3.5 mph - N/A   Clear
11:53 PM 44.1 °F 40.8 °F 10.0 °F 25% 29.91 in 10.0 mi South 5.8 mph - N/A   Clear